Location: *
(48.8667°N, 2.3331°E)
Time: 18:32:04
(UTC+00:00)

Iridium 4 Rocket - Pass Details

Date: 09 April 2020
Orbit: 585 x 904 km, 86.9° (Epoch: 24 May)

Event Time Altitude Azimuth Distance (km) Brightness Sun altitude
Rises 19:51:43 0° 6° (N) 2,858 6.8 -12.7°
Reaches altitude 10° 19:54:14 10° 19° (NNE) 1,931 5.7 -13.1°
Maximum altitude 19:57:48 26° 77° (ENE) 1,157 4.0 -13.6°
Enters shadow 19:59:09 22° 109° (ESE) 1,294 4.1 -13.8°
